Ashland, WI

6:15 AM CST on February 21, 2018 (GMT -0600)
Kennedy Memorial

Weather History for KASX - November, 2012

Change the Weather History Date:

Thursday, November 8, 2012

  Actual Average Record
Temperature  
Mean Temperature 45 °F 35 °F  
Max Temperature 53 °F 43 °F 73 °F (1999)
Min Temperature 37 °F 26 °F 3 °F (2003)
Degree Days  
Heating Degree Days 20 30  
Month to date heating degree days 226  
Cooling Degree Days 0 0  
Month to date cooling degree days 0  
Moisture  
Dew Point 34 °F    
Average Humidity 73    
Maximum Humidity 93    
Minimum Humidity 47    
Precipitation  
Precipitation 0.00 in - 0.58 in (1986)
Sea Level Pressure  
Sea Level Pressure 30.02 in    
Wind  
Wind Speed 6 mph (SSW)    
Max Wind Speed 17 mph    
Max Gust Speed 24 mph    
Visibility 10 miles    
Events      
T = Trace of Precipitation, MM = Missing Value Source: NWS Daily Summary

Daily Weather History Graph

Daily Weather History Graph

Search for Another Location

Airport or City:

Trip Planner

Search our weather history database for the weather conditions in past years. The results will help you decide how hot, cold, wet, or windy it might be!

Date:

Astronomy

Nov. 08, 2012 Rise Set
Actual Time 6:56 AM CST 4:37 PM CST
Civil Twilight 6:24 AM CST 5:10 PM CST
Nautical Twilight 5:47 AM CST 5:46 PM CST
Astronomical Twilight 5:12 AM CST 6:21 PM CST
Moon 12:31 AM CST (11/8) 1:37 PM CST (11/8)
Length of Visible Light 10h 46m
Length of Day
9h 41m
Waning Crescent, 32% of the Moon is Illuminated
Nov 8
Waning Crescent
Nov 13
New
Nov 20
First Quarter
Nov 28
Full
Dec 6
Last Quarter

Hourly Weather History & Observations

Time (CST) Temp. Windchill Dew Point Humidity Pressure Visibility Wind Dir Wind Speed Gust Speed Precip Events Conditions
12:53 AM 37.9 °F 33.5 °F 34.0 °F 86% 30.08 in 10.0 mi South 5.8 mph - N/A   Mostly Cloudy
1:53 AM 37.0 °F 34.5 °F 33.1 °F 86% 30.09 in 10.0 mi South 3.5 mph - N/A   Mostly Cloudy
2:53 AM 37.0 °F 33.3 °F 35.1 °F 93% 30.08 in 9.0 mi South 4.6 mph - 0.00 in   Overcast
3:53 AM 37.0 °F 33.3 °F 35.1 °F 93% 30.06 in 10.0 mi South 4.6 mph - 0.00 in   Overcast
4:53 AM 37.0 °F 32.4 °F 34.0 °F 89% 30.06 in 10.0 mi South 5.8 mph - N/A   Overcast
5:53 AM 37.0 °F 34.5 °F 33.1 °F 86% 30.04 in 10.0 mi SSE 3.5 mph - N/A   Mostly Cloudy
6:53 AM 37.0 °F 32.4 °F 32.0 °F 82% 30.01 in 10.0 mi South 5.8 mph - N/A   Overcast
7:53 AM 37.0 °F 31.6 °F 30.9 °F 79% 30.02 in 10.0 mi SSW 6.9 mph - N/A   Clear
8:53 AM 41.0 °F 34.3 °F 33.1 °F 73% 30.00 in 10.0 mi SSW 11.5 mph 18.4 mph N/A   Clear
9:53 AM 44.1 °F 37.4 °F 34.0 °F 68% 29.99 in 10.0 mi SSW 13.8 mph 23.0 mph N/A   Clear
10:53 AM 46.9 °F - 35.1 °F 63% 29.98 in 10.0 mi SSW 12.7 mph 19.6 mph N/A   Clear
11:53 AM 48.0 °F - 34.0 °F 58% 29.94 in 10.0 mi SSW 11.5 mph 21.9 mph N/A   Clear
12:53 PM 51.1 °F - 35.1 °F 54% 29.91 in 10.0 mi SW 12.7 mph - N/A   Clear
1:53 PM 53.1 °F - 33.1 °F 47% 29.91 in 10.0 mi WSW 17.3 mph 24.2 mph N/A   Clear
2:53 PM 52.0 °F - 34.0 °F 50% 29.93 in 10.0 mi WSW 11.5 mph - N/A   Clear
3:53 PM 51.1 °F - 34.0 °F 52% 29.95 in 10.0 mi WSW 6.9 mph - N/A   Clear
4:53 PM 45.0 °F 43.5 °F 34.0 °F 65% 29.98 in 10.0 mi WSW 3.5 mph - N/A   Clear
5:53 PM 39.9 °F - 33.1 °F 77% 30.01 in 10.0 mi Calm Calm - N/A   Clear
6:53 PM 37.9 °F - 33.1 °F 83% 30.03 in 10.0 mi Calm Calm - N/A   Overcast
7:53 PM 44.1 °F 41.5 °F 35.1 °F 71% 30.04 in 10.0 mi NNW 4.6 mph - N/A   Overcast
8:53 PM 44.1 °F 40.1 °F 35.1 °F 71% 30.05 in 10.0 mi North 6.9 mph - N/A   Overcast
9:53 PM 44.1 °F 40.1 °F 36.0 °F 73% 30.06 in 10.0 mi NNE 6.9 mph - N/A   Overcast
10:53 PM 43.0 °F 41.3 °F 36.0 °F 76% 30.07 in 10.0 mi NE 3.5 mph - N/A   Overcast
11:53 PM 43.0 °F - 36.0 °F 76% 30.09 in 10.0 mi Calm Calm - N/A   Overcast